星链-30927 (STARLINK-30927 )

导读

STARLINK-30927是美国太空探索技术公司SpaceX于2023年11月20日发射的星链系列卫星,属于星链星座(Starlink)的第二代部署卫星。 星链项目旨在通过近地轨道大规模组网,为全球偏远地区、海洋航空等场景提供高速低延迟宽带互联网服务,同时具备军事与应急通信拓展能力。该卫星运行于近地轨道,依托星链星座标准化设计和自主规避技术,支撑全球网络覆盖能力建设。

基本信息
目录编号:
58382
目录名称:
STARLINK-30927
国际标识:
2023-178J
轨道中心:
EARTH
卫星名称:
星链-30927
卫星全名:
星链-30927 (STARLINK-30927 )
卫星状态:
在轨 (已飞行1026 天)
发射日期:
2023-11-20 UTC
国别 :
美国 (US)
星等 :
--
该卫星已列入 空间交会检测服务 Space Conjunction Data Service (SCDS) ,当前飞行风险评估等级: 高风险
轨道信息
数据来源 国际轨道数据
星历时间: 2026-09-09T16:18:21+0800
2天前
查看轨道信息
半长轴: 6840.858km
偏心率: 0.0001366
轨道倾角: 53.159°
近地点辐角 87.059°
升交点赤经 224.208°
平近点角 273.056°
近地点: 461.786km
远地点: 463.656km
周期: 93.848分钟
每日圈数: 15.343943
详细信息
固有亮度:
5
最大亮度:
0.3
卫星平台:
Starlink v2.0 mini
覆盖范围:
全球
运营商:
太空探索技术公司
运营商所在国:
美国
制造商(研发单位):
太空探索技术公司
制造商所在国:
美国
使用方式:
暂无
卫星简介
星链(Starlink)计划是由太空探索技术公司(SpaceX)提出的一个巨型低轨卫星互联网星座项目,计划在2019年至2024年间在太空搭建由约1.2万颗卫星组成的“星链”网络,其中1584颗将部署在地球上空550千米处的近地轨道,并从2020年开始工作。该卫星仍在工作。
2D轨道图
3D轨道图
轨道高度分析图
轨道倾角分析图
轨道综合分析图
查看轨道综合分析图
与全量物体交会距离演化趋势
与全量物体交会风险概率演化趋势